Logan, UT

6:46 AM MDT on June 25, 2017 (GMT -0600)
Logan-Cache

Weather History for KLGU - February, 2013

Change the Weather History Date:

Saturday, February 16, 2013

  Actual Average Record
Temperature  
Mean Temperature 14 °F -  
Max Temperature 24 °F 37 °F 55 °F (1958)
Min Temperature 5 °F 17 °F -9 °F (2002)
Degree Days  
Heating Degree Days 50    
Moisture  
Dew Point 10 °F    
Average Humidity 88    
Maximum Humidity 96    
Minimum Humidity 74    
Precipitation  
Precipitation 0.00 in - - ()
Sea Level Pressure  
Sea Level Pressure 30.34 in    
Wind  
Wind Speed 3 mph (SW)    
Max Wind Speed 8 mph    
Max Gust Speed -    
Visibility 2 miles    
Events Fog    
Averages and records for this station are not official NWS values.
T = Trace of Precipitation, MM = Missing Value Source: NWS Daily Summary

Daily Weather History Graph

Daily Weather History Graph

Search for Another Location

Airport or City:

Trip Planner

Search our weather history database for the weather conditions in past years. The results will help you decide how hot, cold, wet, or windy it might be!

Date:

Astronomy

Feb. 16, 2013 Rise Set
Actual Time 7:21 AM MST 6:02 PM MST
Civil Twilight 6:52 AM MST 6:30 PM MST
Nautical Twilight 6:20 AM MST 7:03 PM MST
Astronomical Twilight 5:47 AM MST 7:35 PM MST
Moon 10:29 AM MST (2/16) 12:11 AM MST (2/16)
Length of Visible Light 11h 38m
Length of Day
10h 41m
Waxing Crescent, 40% of the Moon is Illuminated
Feb 16
Waxing Crescent
Feb 17
First Quarter
Feb 25
Full
Mar 4
Last Quarter
Mar 11
New

Hourly Weather History & Observations

Time (MST) Temp. Windchill Dew Point Humidity Pressure Visibility Wind Dir Wind Speed Gust Speed Precip Events Conditions
12:49 AM 15.8 °F 8.6 °F 12.2 °F 86% 30.47 in 1.5 mi East 4.6 mph - N/A   Partly Cloudy
12:51 AM 16.0 °F 8.8 °F 12.9 °F 88% 30.59 in 2.5 mi East 4.6 mph - N/A   Partly Cloudy
12:58 AM 17.6 °F 10.7 °F 14.0 °F 86% 30.47 in 3.0 mi East 4.6 mph - N/A   Partly Cloudy
1:21 AM 10.4 °F -1.5 °F 5.0 °F 79% 30.47 in 1.8 mi West 8.1 mph - N/A   Haze
1:24 AM 8.6 °F -2.6 °F 3.2 °F 79% 30.47 in 0.8 mi West 6.9 mph - N/A   Mist
1:51 AM 7.0 °F - 5.0 °F 92% 30.61 in 0.2 mi Calm Calm - N/A Fog Light Freezing Fog
2:51 AM 5.0 °F -2.1 °F 1.9 °F 87% 30.61 in 0.2 mi WNW 3.5 mph - N/A Fog Light Freezing Fog
3:51 AM 6.1 °F - 3.0 °F 87% 30.58 in 0.2 mi Calm Calm - N/A Fog Light Freezing Fog
4:51 AM 7.0 °F 0.1 °F 3.9 °F 87% 30.58 in 0.2 mi West 3.5 mph - N/A Fog Light Freezing Fog
5:51 AM 6.1 °F - 3.9 °F 91% 30.57 in 0.2 mi Calm Calm - N/A Fog Light Freezing Fog
6:51 AM 6.1 °F - 1.9 °F 83% 30.56 in 0.2 mi Calm Calm - N/A Fog Light Freezing Fog
7:51 AM 5.0 °F - 3.0 °F 92% 30.58 in 0.2 mi Calm Calm - N/A Fog Light Freezing Fog
8:51 AM 7.0 °F - 6.1 °F 96% 30.60 in 0.2 mi Calm Calm - N/A Fog Light Freezing Fog
9:51 AM 10.9 °F - 9.0 °F 92% 30.56 in 0.2 mi Calm Calm - N/A Fog Light Freezing Fog
10:11 AM 10.4 °F - 8.6 °F 92% 30.40 in 1.2 mi Calm Calm - N/A   Scattered Clouds
10:39 AM 12.2 °F - 10.4 °F 92% 30.40 in 2.5 mi Calm Calm - N/A   Clear
10:51 AM 12.0 °F - 9.0 °F 88% 30.56 in 2.5 mi Calm Calm - N/A   Clear
10:59 AM 12.2 °F - 10.4 °F 92% 30.39 in 3.0 mi Calm Calm - N/A   Clear
11:51 AM 14.0 °F - 12.9 °F 95% 30.54 in 3.0 mi Calm Calm - N/A   Clear
12:51 PM 18.0 °F - 14.0 °F 84% 30.48 in 5.0 mi Calm Calm - N/A   Clear
1:51 PM 19.0 °F - 15.1 °F 85% 30.47 in 5.0 mi Calm Calm - N/A   Clear
2:51 PM 23.0 °F - 16.0 °F 74% 30.43 in 6.0 mi Calm Calm - N/A   Haze
3:51 PM 24.1 °F - 19.0 °F 81% 30.39 in 5.0 mi Calm Calm - N/A   Haze
4:51 PM 23.0 °F - 17.1 °F 78% 30.36 in 6.0 mi Calm Calm - N/A   Haze
5:51 PM 21.0 °F - 17.1 °F 85% 30.34 in 5.0 mi Calm Calm - N/A   Clear
6:51 PM 17.1 °F - 14.0 °F 88% 30.33 in 3.0 mi Calm Calm - N/A   Clear
7:11 PM 14.0 °F 6.5 °F 12.2 °F 93% 30.14 in 2.5 mi West 4.6 mph - N/A   Clear
7:21 PM 12.2 °F 4.3 °F 10.4 °F 92% 30.13 in 3.0 mi NW 4.6 mph - N/A   Clear
7:51 PM 17.1 °F - 14.0 °F 88% 30.31 in 5.0 mi Calm Calm - N/A   Clear
8:36 PM 15.8 °F - 12.2 °F 86% 30.10 in 2.0 mi Calm Calm - N/A   Clear
8:43 PM 10.4 °F - 8.6 °F 92% 30.10 in 1.5 mi Calm Calm - N/A   Clear
8:51 PM 10.0 °F - 8.1 °F 92% 30.30 in 1.8 mi Calm Calm - N/A   Clear
8:58 PM 12.2 °F - 8.6 °F 85% 30.09 in 2.0 mi Calm Calm - N/A   Clear
9:09 PM 12.2 °F 4.3 °F 10.4 °F 92% 30.10 in 0.8 mi WNW 4.6 mph - N/A   Clear
9:22 PM 12.2 °F 6.1 °F 8.6 °F 85% 30.09 in 2.0 mi South 3.5 mph - N/A   Clear
9:27 PM 12.2 °F 2.9 °F 10.4 °F 92% 30.09 in 1.0 mi South 5.8 mph - N/A   Mist
9:29 PM 12.2 °F 2.9 °F 10.4 °F 92% 30.09 in 0.8 mi South 5.8 mph - N/A   Mist
9:37 PM 15.8 °F 10.2 °F 12.2 °F 86% 30.08 in 1.5 mi SSW 3.5 mph - N/A   Partly Cloudy
9:40 PM 15.8 °F 7.2 °F 14.0 °F 93% 30.08 in 3.0 mi SSW 5.8 mph - N/A   Clear
9:51 PM 12.9 °F 5.2 °F 10.9 °F 92% 30.26 in 1.5 mi SW 4.6 mph - N/A   Clear
9:53 PM 12.2 °F 4.3 °F 10.4 °F 92% 30.08 in 0.8 mi SW 4.6 mph - N/A   Mist
10:11 PM 6.8 °F - 5.0 °F 92% 30.08 in 0.2 mi Calm Calm - N/A Fog Light Freezing Fog
10:51 PM 12.9 °F 6.9 °F 10.0 °F 88% 30.22 in 0.2 mi SE 3.5 mph - N/A Fog Light Freezing Fog
11:05 PM 14.0 °F - 10.4 °F 86% 30.04 in 1.5 mi Calm Calm - N/A   Scattered Clouds
11:17 PM 10.4 °F - 8.6 °F 92% 30.04 in 0.2 mi Calm Calm - N/A Fog Light Freezing Fog
11:51 PM 8.1 °F -0.5 °F 5.0 °F 87% 30.19 in 0.2 mi WSW 4.6 mph - N/A Fog Light Freezing Fog